Terug naar catalogus

BREEZE-M DEB

LostHEO
NORAD 38591·DEBRIS·🇷🇺 Russia

Gelanceerd Mar 14, 2008 vanaf Baikonur Cosmodrome

Loading…

Volgende Passages (komende 24 uur)

TLE

VerouderdSource: Space-Track

Epoch: Aug 24, 2015, 11:08 UTC

1 38591U 08011AN  15236.46403260 +.00000002 +00000-0 +00000-0 0  9990
2 38591 049.2389 318.5051 6543723 084.0509 341.6535 02.96228203043493

Volg BREEZE-M DEB in realtime met AllMySat

Download on the App Store